Time,TemperatureF,DewpointF,PressureIn,WindDirection,WindDirectionDegrees,WindSpeedMPH,WindSpeedGustMPH,Humidity,HourlyPrecipIn,Conditions,Clouds,dailyrainin,SoftwareType,DateUTC
2013-05-05 00:00:00,69.6,21.4,29.72,SE,132,1.0,1.0,16,0.00,,,0.00,Wunderground v.1.15,2013-05-05 06:00:00,
2013-05-05 00:10:00,69.4,21.2,29.72,SE,146,1.0,1.0,16,0.00,,,0.00,Wunderground v.1.15,2013-05-05 06:10:00,
2013-05-05 00:15:00,69.4,21.2,29.71,SSE,148,1.0,1.0,16,0.00,,,0.00,Wunderground v.1.15,2013-05-05 06:15:00,
2013-05-05 00:20:00,69.4,22.7,29.71,SE,136,0.0,0.0,17,0.00,,,0.00,Wunderground v.1.15,2013-05-05 06:20:00,
2013-05-05 00:25:00,69.6,22.8,29.71,ESE,119,0.0,0.0,17,0.00,,,0.00,Wunderground v.1.15,2013-05-05 06:25:00,
2013-05-05 00:30:00,69.5,22.7,29.71,East,89,0.0,0.0,17,0.00,,,0.00,Wunderground v.1.15,2013-05-05 06:30:00,
2013-05-05 00:35:00,69.5,22.7,29.70,ESE,106,0.0,0.0,17,0.00,,,0.00,Wunderground v.1.15,2013-05-05 06:35:00,
2013-05-05 00:40:00,69.5,22.7,29.70,East,88,0.0,0.0,17,0.00,,,0.00,Wunderground v.1.15,2013-05-05 06:40:00,
2013-05-05 00:45:00,69.5,24.1,29.70,East,98,0.0,0.0,18,0.00,,,0.00,Wunderground v.1.15,2013-05-05 06:45:00,
2013-05-05 00:50:00,69.4,24.0,29.70,East,84,0.0,0.0,18,0.00,,,0.00,Wunderground v.1.15,2013-05-05 06:50:00,
2013-05-05 00:55:00,69.2,23.9,29.70,East,82,0.0,0.0,18,0.00,,,0.00,Wunderground v.1.15,2013-05-05 06:55:00,
2013-05-05 01:00:00,68.9,24.9,29.69,ENE,72,0.0,0.0,19,0.00,,,0.00,Wunderground v.1.15,2013-05-05 07:00:00,
2013-05-05 01:05:00,68.8,24.8,29.69,East,84,0.0,0.0,19,0.00,,,0.00,Wunderground v.1.15,2013-05-05 07:05:00,
2013-05-05 01:15:00,68.5,25.8,29.69,NNE,32,0.0,1.0,20,0.00,,,0.00,Wunderground v.1.15,2013-05-05 07:15:00,
2013-05-05 01:20:00,68.3,24.4,29.69,East,98,0.0,0.0,19,0.00,,,0.00,Wunderground v.1.15,2013-05-05 07:20:00,
2013-05-05 01:30:00,67.9,25.3,29.69,SE,135,0.0,0.0,20,0.00,,,0.00,Wunderground v.1.15,2013-05-05 07:30:00,
2013-05-05 01:35:00,67.6,25.1,29.68,East,92,0.0,0.0,20,0.00,,,0.00,Wunderground v.1.15,2013-05-05 07:35:00,
2013-05-05 01:40:00,67.3,23.6,29.69,East,80,0.0,0.0,19,0.00,,,0.00,Wunderground v.1.15,2013-05-05 07:40:00,
2013-05-05 01:45:00,67.1,23.4,29.69,East,99,0.0,0.0,19,0.00,,,0.00,Wunderground v.1.15,2013-05-05 07:45:00,
2013-05-05 01:55:00,66.8,24.4,29.69,East,100,0.0,0.0,20,0.00,,,0.00,Wunderground v.1.15,2013-05-05 07:55:00,
2013-05-05 02:00:00,66.7,24.3,29.69,East,99,0.0,0.0,20,0.00,,,0.00,Wunderground v.1.15,2013-05-05 08:00:00,
2013-05-05 02:05:00,66.5,24.2,29.69,East,99,0.0,0.0,20,0.00,,,0.00,Wunderground v.1.15,2013-05-05 08:05:00,
2013-05-05 02:15:00,66.3,25.2,29.68,East,99,0.0,0.0,21,0.00,,,0.00,Wunderground v.1.15,2013-05-05 08:15:00,
2013-05-05 02:25:00,65.8,24.7,29.68,East,99,0.0,0.0,21,0.00,,,0.00,Wunderground v.1.15,2013-05-05 08:25:00,
2013-05-05 02:30:00,65.6,24.6,29.69,East,99,0.0,0.0,21,0.00,,,0.00,Wunderground v.1.15,2013-05-05 08:30:00,
2013-05-05 02:40:00,65.2,24.2,29.69,East,99,0.0,0.0,21,0.00,,,0.00,Wunderground v.1.15,2013-05-05 08:40:00,
2013-05-05 02:45:00,65.0,25.2,29.69,East,99,0.0,0.0,22,0.00,,,0.00,Wunderground v.1.15,2013-05-05 08:45:00,
2013-05-05 02:50:00,64.9,25.1,29.69,East,99,0.0,0.0,22,0.00,,,0.00,Wunderground v.1.15,2013-05-05 08:50:00,
2013-05-05 02:55:00,64.7,24.9,29.70,East,99,0.0,0.0,22,0.00,,,0.00,Wunderground v.1.15,2013-05-05 08:55:00,
2013-05-05 03:00:00,64.6,23.7,29.70,East,99,0.0,0.0,21,0.00,,,0.00,Wunderground v.1.15,2013-05-05 09:00:00,
2013-05-05 03:05:00,64.6,23.7,29.70,East,99,0.0,0.0,21,0.00,,,0.00,Wunderground v.1.15,2013-05-05 09:05:00,
2013-05-05 03:15:00,64.6,24.9,29.70,East,99,0.0,0.0,22,0.00,,,0.00,Wunderground v.1.15,2013-05-05 09:15:00,
2013-05-05 03:25:00,64.6,25.9,29.70,East,99,0.0,0.0,23,0.00,,,0.00,Wunderground v.1.15,2013-05-05 09:25:00,
2013-05-05 03:30:00,64.5,25.8,29.70,East,99,0.0,0.0,23,0.00,,,0.00,Wunderground v.1.15,2013-05-05 09:30:00,
2013-05-05 03:35:00,64.4,25.8,29.70,East,99,0.0,0.0,23,0.00,,,0.00,Wunderground v.1.15,2013-05-05 09:35:00,
2013-05-05 03:40:00,64.3,25.7,29.70,East,99,0.0,0.0,23,0.00,,,0.00,Wunderground v.1.15,2013-05-05 09:40:00,
2013-05-05 03:45:00,64.1,25.5,29.70,East,99,0.0,0.0,23,0.00,,,0.00,Wunderground v.1.15,2013-05-05 09:45:00,
2013-05-05 03:50:00,64.0,24.4,29.70,East,99,0.0,0.0,22,0.00,,,0.00,Wunderground v.1.15,2013-05-05 09:50:00,
2013-05-05 03:55:00,63.9,25.3,29.70,East,99,0.0,0.0,23,0.00,,,0.00,Wunderground v.1.15,2013-05-05 09:55:00,
2013-05-05 04:00:00,63.8,24.2,29.71,East,99,0.0,0.0,22,0.00,,,0.00,Wunderground v.1.15,2013-05-05 10:00:00,
2013-05-05 04:05:00,64.0,23.2,29.71,East,90,0.0,0.0,21,0.00,,,0.00,Wunderground v.1.15,2013-05-05 10:05:00,
2013-05-05 04:15:00,64.5,23.7,29.71,ENE,75,0.0,0.0,21,0.00,,,0.00,Wunderground v.1.15,2013-05-05 10:15:00,
2013-05-05 04:20:00,64.5,23.7,29.71,ENE,75,0.0,0.0,21,0.00,,,0.00,Wunderground v.1.15,2013-05-05 10:20:00,
2013-05-05 04:25:00,64.4,23.6,29.71,ENE,75,0.0,0.0,21,0.00,,,0.00,Wunderground v.1.15,2013-05-05 10:25:00,
2013-05-05 04:30:00,64.4,23.6,29.71,ENE,75,0.0,0.0,21,0.00,,,0.00,Wunderground v.1.15,2013-05-05 10:30:00,
2013-05-05 04:40:00,64.2,24.5,29.71,ENE,75,0.0,0.0,22,0.00,,,0.00,Wunderground v.1.15,2013-05-05 10:40:00,
2013-05-05 04:50:00,64.0,24.4,29.71,ENE,75,0.0,0.0,22,0.00,,,0.00,Wunderground v.1.15,2013-05-05 10:50:00,
2013-05-05 04:55:00,63.9,25.3,29.71,ENE,75,0.0,0.0,23,0.00,,,0.00,Wunderground v.1.15,2013-05-05 10:55:00,
2013-05-05 05:00:00,63.9,24.3,29.71,NW,325,0.0,0.0,22,0.00,,,0.00,Wunderground v.1.15,2013-05-05 11:00:00,
2013-05-05 05:05:00,63.8,24.2,29.72,NW,325,0.0,0.0,22,0.00,,,0.00,Wunderground v.1.15,2013-05-05 11:05:00,
2013-05-05 05:15:00,63.6,24.0,29.73,NW,321,0.0,0.0,22,0.00,,,0.00,Wunderground v.1.15,2013-05-05 11:15:00,
2013-05-05 05:20:00,63.5,25.0,29.73,NW,319,0.0,0.0,23,0.00,,,0.00,Wunderground v.1.15,2013-05-05 11:20:00,
2013-05-05 05:25:00,63.3,23.8,29.73,NW,318,0.0,0.0,22,0.00,,,0.00,Wunderground v.1.15,2013-05-05 11:25:00,
2013-05-05 05:30:00,63.2,23.7,29.73,NW,318,0.0,0.0,22,0.00,,,0.00,Wunderground v.1.15,2013-05-05 11:30:00,
2013-05-05 05:40:00,63.1,24.7,29.73,NW,318,0.0,0.0,23,0.00,,,0.00,Wunderground v.1.15,2013-05-05 11:40:00,
2013-05-05 05:45:00,62.9,24.5,29.74,NW,318,0.0,0.0,23,0.00,,,0.00,Wunderground v.1.15,2013-05-05 11:45:00,
2013-05-05 05:55:00,62.6,24.2,29.74,NW,318,0.0,0.0,23,0.00,,,0.00,Wunderground v.1.15,2013-05-05 11:55:00,
2013-05-05 06:00:00,62.4,24.1,29.75,NW,318,0.0,0.0,23,0.00,,,0.00,Wunderground v.1.15,2013-05-05 12:00:00,
2013-05-05 06:05:00,62.2,24.9,29.76,NW,318,0.0,0.0,24,0.00,,,0.00,Wunderground v.1.15,2013-05-05 12:05:00,
2013-05-05 06:15:00,61.8,23.6,29.77,NW,318,0.0,0.0,23,0.00,,,0.00,Wunderground v.1.15,2013-05-05 12:15:00,
2013-05-05 06:25:00,61.3,23.1,29.78,NW,318,0.0,0.0,23,0.00,,,0.00,Wunderground v.1.15,2013-05-05 12:25:00,
2013-05-05 06:30:00,61.1,23.0,29.78,NW,318,0.0,0.0,23,0.00,,,0.00,Wunderground v.1.15,2013-05-05 12:30:00,
2013-05-05 06:35:00,61.0,22.9,29.78,NW,318,0.0,0.0,23,0.00,,,0.00,Wunderground v.1.15,2013-05-05 12:35:00,
2013-05-05 06:40:00,61.0,23.9,29.78,NW,318,0.0,0.0,24,0.00,,,0.00,Wunderground v.1.15,2013-05-05 12:40:00,
2013-05-05 06:45:00,60.9,23.8,29.78,NW,318,0.0,0.0,24,0.00,,,0.00,Wunderground v.1.15,2013-05-05 12:45:00,
2013-05-05 06:55:00,60.8,24.7,29.79,NW,318,0.0,0.0,25,0.00,,,0.00,Wunderground v.1.15,2013-05-05 12:55:00,
2013-05-05 07:05:00,60.7,24.6,29.81,NW,318,0.0,0.0,25,0.00,,,0.00,Wunderground v.1.15,2013-05-05 13:05:00,
2013-05-05 07:15:00,60.5,26.3,29.82,NW,318,0.0,0.0,27,0.00,,,0.00,Wunderground v.1.15,2013-05-05 13:15:00,
2013-05-05 07:20:00,60.5,26.3,29.82,NW,318,0.0,0.0,27,0.00,,,0.00,Wunderground v.1.15,2013-05-05 13:20:00,
2013-05-05 07:25:00,60.7,27.4,29.82,NW,318,0.0,0.0,28,0.00,,,0.00,Wunderground v.1.15,2013-05-05 13:25:00,
2013-05-05 07:35:00,61.2,26.9,29.83,NW,318,0.0,0.0,27,0.00,,,0.00,Wunderground v.1.15,2013-05-05 13:35:00,
2013-05-05 07:40:00,61.5,26.3,29.83,NW,318,0.0,0.0,26,0.00,,,0.00,Wunderground v.1.15,2013-05-05 13:40:00,
2013-05-05 07:45:00,61.9,28.4,29.82,NW,318,0.0,0.0,28,0.00,,,0.00,Wunderground v.1.15,2013-05-05 13:45:00,
2013-05-05 07:55:00,62.6,29.0,29.82,NW,318,0.0,0.0,28,0.00,,,0.00,Wunderground v.1.15,2013-05-05 13:55:00,
2013-05-05 08:00:00,63.2,29.5,29.82,NW,318,0.0,0.0,28,0.00,,,0.00,Wunderground v.1.15,2013-05-05 14:00:00,
2013-05-05 08:05:00,63.6,27.1,29.84,NW,318,0.0,0.0,25,0.00,,,0.00,Wunderground v.1.15,2013-05-05 14:05:00,
2013-05-05 08:15:00,64.6,29.8,29.83,NW,318,0.0,0.0,27,0.00,,,0.00,Wunderground v.1.15,2013-05-05 14:15:00,
2013-05-05 08:20:00,65.1,30.3,29.83,NW,318,0.0,0.0,27,0.00,,,0.00,Wunderground v.1.15,2013-05-05 14:20:00,
2013-05-05 08:25:00,65.6,29.8,29.83,NW,318,0.0,0.0,26,0.00,,,0.00,Wunderground v.1.15,2013-05-05 14:25:00,
2013-05-05 08:30:00,66.3,33.1,29.83,NW,318,0.0,0.0,29,0.00,,,0.00,Wunderground v.1.15,2013-05-05 14:30:00,
2013-05-05 08:35:00,67.1,30.1,29.82,NW,318,0.0,0.0,25,0.00,,,0.00,Wunderground v.1.15,2013-05-05 14:35:00,
2013-05-05 08:40:00,68.2,29.0,29.82,SE,125,0.0,1.0,23,0.00,,,0.00,Wunderground v.1.15,2013-05-05 14:40:00,
2013-05-05 08:45:00,69.5,29.0,29.81,SSE,167,1.0,2.0,22,0.00,,,0.00,Wunderground v.1.15,2013-05-05 14:45:00,
2013-05-05 08:50:00,70.3,28.5,29.82,SE,127,1.0,1.0,21,0.00,,,0.00,Wunderground v.1.15,2013-05-05 14:50:00,
2013-05-05 08:55:00,70.8,27.7,29.81,SSE,148,1.0,1.0,20,0.00,,,0.00,Wunderground v.1.15,2013-05-05 14:55:00,
2013-05-05 09:00:00,71.0,27.9,29.81,SE,138,2.0,2.0,20,0.00,,,0.00,Wunderground v.1.15,2013-05-05 15:00:00,
2013-05-05 09:10:00,71.5,28.3,29.81,SE,136,1.0,4.0,20,0.00,,,0.00,Wunderground v.1.15,2013-05-05 15:10:00,
2013-05-05 09:15:00,71.8,28.5,29.81,South,175,1.0,4.0,20,0.00,,,0.00,Wunderground v.1.15,2013-05-05 15:15:00,
2013-05-05 09:20:00,72.1,28.8,29.81,ESE,123,1.0,6.0,20,0.00,,,0.00,Wunderground v.1.15,2013-05-05 15:20:00,
2013-05-05 09:25:00,72.4,29.0,29.81,SE,146,1.0,6.0,20,0.00,,,0.00,Wunderground v.1.15,2013-05-05 15:25:00,
2013-05-05 09:30:00,72.8,28.1,29.81,SE,126,1.0,4.0,19,0.00,,,0.00,Wunderground v.1.15,2013-05-05 15:30:00,
2013-05-05 09:35:00,73.3,28.5,29.81,SE,136,1.0,4.0,19,0.00,,,0.00,Wunderground v.1.15,2013-05-05 15:35:00,
2013-05-05 09:40:00,73.5,28.7,29.81,ESE,116,1.0,1.0,19,0.00,,,0.00,Wunderground v.1.15,2013-05-05 15:40:00,
2013-05-05 09:50:00,73.8,30.2,29.81,SSE,167,1.0,1.0,20,0.00,,,0.00,Wunderground v.1.15,2013-05-05 15:50:00,
2013-05-05 09:55:00,74.0,30.4,29.81,SSE,160,1.0,1.0,20,0.00,,,0.00,Wunderground v.1.15,2013-05-05 15:55:00,
2013-05-05 10:00:00,74.2,30.5,29.81,South,169,1.0,1.0,20,0.00,,,0.00,Wunderground v.1.15,2013-05-05 16:00:00,
2013-05-05 10:10:00,74.5,29.5,29.81,SSE,160,1.0,3.0,19,0.00,,,0.00,Wunderground v.1.15,2013-05-05 16:10:00,
2013-05-05 10:15:00,74.7,30.9,29.80,ESE,119,1.0,3.0,20,0.00,,,0.00,Wunderground v.1.15,2013-05-05 16:15:00,
2013-05-05 10:20:00,74.8,29.8,29.80,SE,129,1.0,3.0,19,0.00,,,0.00,Wunderground v.1.15,2013-05-05 16:20:00,
2013-05-05 10:30:00,75.4,31.5,29.80,East,88,0.0,0.0,20,0.00,,,0.00,Wunderground v.1.15,2013-05-05 16:30:00,
2013-05-05 10:35:00,75.5,30.3,29.80,ESE,109,1.0,1.0,19,0.00,,,0.00,Wunderground v.1.15,2013-05-05 16:35:00,
2013-05-05 10:40:00,76.1,29.5,29.81,SSE,150,1.0,2.0,18,0.00,,,0.00,Wunderground v.1.15,2013-05-05 16:40:00,
2013-05-05 10:45:00,76.5,31.1,29.80,ESE,106,1.0,2.0,19,0.00,,,0.00,Wunderground v.1.15,2013-05-05 16:45:00,
2013-05-05 10:55:00,76.5,31.1,29.80,SE,146,1.0,1.0,19,0.00,,,0.00,Wunderground v.1.15,2013-05-05 16:55:00,
2013-05-05 11:00:00,76.8,32.7,29.80,ESE,111,1.0,1.0,20,0.00,,,0.00,Wunderground v.1.15,2013-05-05 17:00:00,
2013-05-05 11:05:00,76.7,32.6,29.80,ESE,118,0.0,2.0,20,0.00,,,0.00,Wunderground v.1.15,2013-05-05 17:05:00,
2013-05-05 11:15:00,77.0,32.8,29.80,SE,124,0.0,0.0,20,0.00,,,0.00,Wunderground v.1.15,2013-05-05 17:15:00,
2013-05-05 11:20:00,77.1,32.9,29.80,SE,142,0.0,0.0,20,0.00,,,0.00,Wunderground v.1.15,2013-05-05 17:20:00,
2013-05-05 11:30:00,77.4,33.2,29.79,ESE,115,1.0,1.0,20,0.00,,,0.00,Wunderground v.1.15,2013-05-05 17:30:00,
2013-05-05 11:35:00,77.7,32.1,29.79,ESE,111,1.0,1.0,19,0.00,,,0.00,Wunderground v.1.15,2013-05-05 17:35:00,
2013-05-05 11:40:00,78.0,33.7,29.79,SE,138,0.0,0.0,20,0.00,,,0.00,Wunderground v.1.15,2013-05-05 17:40:00,
2013-05-05 11:45:00,78.5,34.1,29.79,SE,132,0.0,5.0,20,0.00,,,0.00,Wunderground v.1.15,2013-05-05 17:45:00,
2013-05-05 11:50:00,78.7,33.0,29.79,SE,127,1.0,1.0,19,0.00,,,0.00,Wunderground v.1.15,2013-05-05 17:50:00,
2013-05-05 11:55:00,78.8,33.0,29.79,SE,129,1.0,1.0,19,0.00,,,0.00,Wunderground v.1.15,2013-05-05 17:55:00,
2013-05-05 12:05:00,79.3,30.7,29.79,SSE,157,1.0,1.0,17,0.00,,,0.00,Wunderground v.1.15,2013-05-05 18:05:00,
2013-05-05 12:15:00,80.1,31.3,29.79,ESE,121,1.0,1.0,17,0.00,,,0.00,Wunderground v.1.15,2013-05-05 18:15:00,
2013-05-05 12:20:00,80.2,31.4,29.79,East,99,1.0,1.0,17,0.00,,,0.00,Wunderground v.1.15,2013-05-05 18:20:00,
2013-05-05 12:30:00,80.6,31.7,29.77,SSW,201,1.0,1.0,17,0.00,,,0.00,Wunderground v.1.15,2013-05-05 18:30:00,
2013-05-05 12:35:00,80.5,31.7,29.77,SE,134,1.0,1.0,17,0.00,,,0.00,Wunderground v.1.15,2013-05-05 18:35:00,
2013-05-05 12:45:00,80.0,31.2,29.78,ESE,106,1.0,5.0,17,0.00,,,0.00,Wunderground v.1.15,2013-05-05 18:45:00,
2013-05-05 12:50:00,79.4,30.8,29.78,SE,137,1.0,5.0,17,0.00,,,0.00,Wunderground v.1.15,2013-05-05 18:50:00,
2013-05-05 12:55:00,79.1,31.9,29.77,SE,138,1.0,5.0,18,0.00,,,0.00,Wunderground v.1.15,2013-05-05 18:55:00,
2013-05-05 13:00:00,79.3,30.7,29.77,SSE,153,1.0,1.0,17,0.00,,,0.00,Wunderground v.1.15,2013-05-05 19:00:00,
2013-05-05 13:05:00,79.8,31.1,29.77,SE,126,1.0,1.0,17,0.00,,,0.00,Wunderground v.1.15,2013-05-05 19:05:00,
2013-05-05 13:15:00,80.1,32.7,29.77,ESE,113,1.0,2.0,18,0.00,,,0.00,Wunderground v.1.15,2013-05-05 19:15:00,
2013-05-05 13:20:00,80.4,31.6,29.76,SE,130,1.0,1.0,17,0.00,,,0.00,Wunderground v.1.15,2013-05-05 19:20:00,
2013-05-05 13:25:00,80.5,33.1,29.75,ESE,119,1.0,1.0,18,0.00,,,0.00,Wunderground v.1.15,2013-05-05 19:25:00,
2013-05-05 13:35:00,80.9,33.4,29.75,East,99,1.0,2.0,18,0.00,,,0.00,Wunderground v.1.15,2013-05-05 19:35:00,
2013-05-05 13:45:00,81.4,32.4,29.75,SSE,147,0.0,1.0,17,0.00,,,0.00,Wunderground v.1.15,2013-05-05 19:45:00,
2013-05-05 13:50:00,81.7,32.6,29.75,East,92,1.0,1.0,17,0.00,,,0.00,Wunderground v.1.15,2013-05-05 19:50:00,
2013-05-05 13:55:00,81.8,32.7,29.74,East,90,1.0,1.0,17,0.00,,,0.00,Wunderground v.1.15,2013-05-05 19:55:00,
2013-05-05 14:00:00,81.8,32.7,29.74,ESE,123,1.0,3.0,17,0.00,,,0.00,Wunderground v.1.15,2013-05-05 20:00:00,
2013-05-05 14:05:00,81.7,32.6,29.75,East,94,1.0,3.0,17,0.00,,,0.00,Wunderground v.1.15,2013-05-05 20:05:00,
2013-05-05 14:15:00,82.0,32.9,29.74,SE,130,1.0,2.0,17,0.00,,,0.00,Wunderground v.1.15,2013-05-05 20:15:00,
2013-05-05 14:20:00,82.4,33.2,29.74,SSE,152,0.0,2.0,17,0.00,,,0.00,Wunderground v.1.15,2013-05-05 20:20:00,
2013-05-05 14:25:00,82.7,34.9,29.73,East,101,1.0,2.0,18,0.00,,,0.00,Wunderground v.1.15,2013-05-05 20:25:00,
2013-05-05 14:30:00,82.9,33.6,29.73,ESE,108,1.0,1.0,17,0.00,,,0.00,Wunderground v.1.15,2013-05-05 20:30:00,
2013-05-05 14:35:00,82.9,35.0,29.73,ESE,103,1.0,3.0,18,0.00,,,0.00,Wunderground v.1.15,2013-05-05 20:35:00,
2013-05-05 14:40:00,83.1,36.6,29.72,ESE,109,0.0,0.0,19,0.00,,,0.00,Wunderground v.1.15,2013-05-05 20:40:00,
2013-05-05 14:50:00,83.2,35.3,29.72,SE,138,1.0,1.0,18,0.00,,,0.00,Wunderground v.1.15,2013-05-05 20:50:00,
2013-05-05 14:55:00,83.4,35.4,29.71,ESE,104,0.0,1.0,18,0.00,,,0.00,Wunderground v.1.15,2013-05-05 20:55:00,
2013-05-05 15:05:00,83.4,35.4,29.72,ESE,112,0.0,0.0,18,0.00,,,0.00,Wunderground v.1.15,2013-05-05 21:05:00,
2013-05-05 15:15:00,83.5,32.6,29.70,ESE,114,1.0,2.0,16,0.00,,,0.00,Wunderground v.1.15,2013-05-05 21:15:00,
2013-05-05 15:25:00,82.9,33.6,29.71,SE,126,2.0,2.0,17,0.00,,,0.00,Wunderground v.1.15,2013-05-05 21:25:00,
2013-05-05 15:30:00,82.8,33.5,29.70,SSE,157,1.0,12.0,17,0.00,,,0.00,Wunderground v.1.15,2013-05-05 21:30:00,
2013-05-05 15:35:00,82.7,33.4,29.71,ESE,113,2.0,12.0,17,0.00,,,0.00,Wunderground v.1.15,2013-05-05 21:35:00,
2013-05-05 15:40:00,82.4,33.2,29.70,SE,136,3.0,3.0,17,0.00,,,0.00,Wunderground v.1.15,2013-05-05 21:40:00,
2013-05-05 15:45:00,82.3,33.1,29.70,SE,137,1.0,6.0,17,0.00,,,0.00,Wunderground v.1.15,2013-05-05 21:45:00,
2013-05-05 15:50:00,82.3,31.6,29.70,SE,126,1.0,1.0,16,0.00,,,0.00,Wunderground v.1.15,2013-05-05 21:50:00,
2013-05-05 16:00:00,82.4,33.2,29.69,SE,133,1.0,1.0,17,0.00,,,0.00,Wunderground v.1.15,2013-05-05 22:00:00,
2013-05-05 16:05:00,82.5,31.8,29.69,ESE,121,0.0,2.0,16,0.00,,,0.00,Wunderground v.1.15,2013-05-05 22:05:00,
2013-05-05 16:15:00,82.5,31.8,29.69,SE,129,1.0,3.0,16,0.00,,,0.00,Wunderground v.1.15,2013-05-05 22:15:00,
2013-05-05 16:20:00,82.6,31.8,29.69,SE,124,1.0,1.0,16,0.00,,,0.00,Wunderground v.1.15,2013-05-05 22:20:00,
2013-05-05 16:25:00,82.6,31.8,29.69,NE,51,1.0,1.0,16,0.00,,,0.00,Wunderground v.1.15,2013-05-05 22:25:00,
2013-05-05 16:35:00,82.3,31.6,29.68,East,100,1.0,3.0,16,0.00,,,0.00,Wunderground v.1.15,2013-05-05 22:35:00,
2013-05-05 16:40:00,82.3,31.6,29.68,ESE,122,1.0,1.0,16,0.00,,,0.00,Wunderground v.1.15,2013-05-05 22:40:00,
2013-05-05 16:45:00,82.3,31.6,29.68,SE,139,1.0,1.0,16,0.00,,,0.00,Wunderground v.1.15,2013-05-05 22:45:00,
2013-05-05 16:50:00,82.4,31.7,29.68,SE,132,1.0,1.0,16,0.00,,,0.00,Wunderground v.1.15,2013-05-05 22:50:00,
2013-05-05 16:55:00,82.4,31.7,29.67,SSE,149,0.0,1.0,16,0.00,,,0.00,Wunderground v.1.15,2013-05-05 22:55:00,
2013-05-05 17:05:00,82.3,31.6,29.68,SE,140,0.0,1.0,16,0.00,,,0.00,Wunderground v.1.15,2013-05-05 23:05:00,
2013-05-05 17:15:00,82.3,33.1,29.68,SE,133,1.0,5.0,17,0.00,,,0.00,Wunderground v.1.15,2013-05-05 23:15:00,
2013-05-05 17:20:00,82.2,33.0,29.67,SSE,154,1.0,4.0,17,0.00,,,0.00,Wunderground v.1.15,2013-05-05 23:20:00,
2013-05-05 17:25:00,82.1,32.9,29.67,SSE,149,1.0,4.0,17,0.00,,,0.00,Wunderground v.1.15,2013-05-05 23:25:00,
2013-05-05 17:30:00,82.1,32.9,29.67,ESE,111,1.0,1.0,17,0.00,,,0.00,Wunderground v.1.15,2013-05-05 23:30:00,
2013-05-05 17:35:00,82.1,34.4,29.67,WSW,240,0.0,1.0,18,0.00,,,0.00,Wunderground v.1.15,2013-05-05 23:35:00,
2013-05-05 17:40:00,82.2,34.5,29.67,ESE,119,0.0,0.0,18,0.00,,,0.00,Wunderground v.1.15,2013-05-05 23:40:00,
2013-05-05 17:45:00,82.0,32.9,29.67,SE,128,1.0,1.0,17,0.00,,,0.00,Wunderground v.1.15,2013-05-05 23:45:00,
2013-05-05 17:50:00,81.8,32.7,29.66,SE,141,1.0,1.0,17,0.00,,,0.00,Wunderground v.1.15,2013-05-05 23:50:00,
2013-05-05 17:55:00,81.7,32.6,29.66,SSE,151,0.0,1.0,17,0.00,,,0.00,Wunderground v.1.15,2013-05-05 23:55:00,
2013-05-05 18:00:00,81.5,33.9,29.66,SE,132,0.0,1.0,18,0.00,,,0.00,Wunderground v.1.15,2013-05-06 00:00:00,
2013-05-05 18:05:00,81.3,33.7,29.67,SSE,147,0.0,1.0,18,0.00,,,0.00,Wunderground v.1.15,2013-05-06 00:05:00,
2013-05-05 18:15:00,81.2,33.6,29.67,SE,138,0.0,3.0,18,0.00,,,0.00,Wunderground v.1.15,2013-05-06 00:15:00,
2013-05-05 18:20:00,81.1,33.6,29.67,ESE,118,1.0,1.0,18,0.00,,,0.00,Wunderground v.1.15,2013-05-06 00:20:00,
2013-05-05 18:30:00,81.0,33.5,29.67,SE,132,0.0,0.0,18,0.00,,,0.00,Wunderground v.1.15,2013-05-06 00:30:00,
2013-05-05 18:35:00,80.9,33.4,29.66,SE,145,0.0,0.0,18,0.00,,,0.00,Wunderground v.1.15,2013-05-06 00:35:00,
2013-05-05 18:40:00,80.7,33.2,29.67,SE,145,1.0,1.0,18,0.00,,,0.00,Wunderground v.1.15,2013-05-06 00:40:00,
2013-05-05 18:50:00,80.0,32.7,29.67,SE,130,0.0,0.0,18,0.00,,,0.00,Wunderground v.1.15,2013-05-06 00:50:00,
2013-05-05 18:55:00,79.8,33.9,29.67,SE,128,0.0,0.0,19,0.00,,,0.00,Wunderground v.1.15,2013-05-06 00:55:00,
2013-05-05 19:00:00,79.8,32.5,29.67,SE,128,0.0,0.0,18,0.00,,,0.00,Wunderground v.1.15,2013-05-06 01:00:00,
2013-05-05 19:05:00,79.9,32.6,29.66,SE,128,0.0,0.0,18,0.00,,,0.00,Wunderground v.1.15,2013-05-06 01:05:00,
2013-05-05 19:15:00,79.9,32.6,29.66,East,95,0.0,0.0,18,0.00,,,0.00,Wunderground v.1.15,2013-05-06 01:15:00,
2013-05-05 19:20:00,79.7,32.4,29.66,ESE,121,0.0,0.0,18,0.00,,,0.00,Wunderground v.1.15,2013-05-06 01:20:00,
2013-05-05 19:30:00,79.2,33.4,29.66,ESE,121,0.0,0.0,19,0.00,,,0.00,Wunderground v.1.15,2013-05-06 01:30:00,
2013-05-05 19:35:00,79.0,31.9,29.66,ESE,109,0.0,0.0,18,0.00,,,0.00,Wunderground v.1.15,2013-05-06 01:35:00,
2013-05-05 19:40:00,78.7,33.0,29.66,SE,132,0.0,0.0,19,0.00,,,0.00,Wunderground v.1.15,2013-05-06 01:40:00,
2013-05-05 19:45:00,78.5,31.4,29.66,ESE,119,0.0,0.0,18,0.00,,,0.00,Wunderground v.1.15,2013-05-06 01:45:00,
2013-05-05 21:20:00,74.3,31.8,29.66,ESE,111,0.0,4.0,21,0.00,,,0.00,Wunderground v.1.15,2013-05-06 03:20:00,
2013-05-05 21:25:00,74.4,30.7,29.66,SE,128,1.0,4.0,20,0.00,,,0.00,Wunderground v.1.15,2013-05-06 03:25:00,
2013-05-05 21:30:00,74.4,30.7,29.66,SE,133,1.0,1.0,20,0.00,,,0.00,Wunderground v.1.15,2013-05-06 03:30:00,
2013-05-05 21:35:00,74.4,30.7,29.66,SE,144,1.0,1.0,20,0.00,,,0.00,Wunderground v.1.15,2013-05-06 03:35:00,
2013-05-05 21:45:00,74.2,29.3,29.67,SSE,148,1.0,1.0,19,0.00,,,0.00,Wunderground v.1.15,2013-05-06 03:45:00,
2013-05-05 21:50:00,74.0,29.1,29.68,SE,137,1.0,2.0,19,0.00,,,0.00,Wunderground v.1.15,2013-05-06 03:50:00,
2013-05-05 21:55:00,73.9,29.0,29.68,SE,133,1.0,2.0,19,0.00,,,0.00,Wunderground v.1.15,2013-05-06 03:55:00,
2013-05-05 22:00:00,73.9,32.6,29.67,WSW,240,1.0,1.0,22,0.00,,,0.00,Wunderground v.1.15,2013-05-06 04:00:00,
2013-05-05 22:05:00,74.0,31.6,29.66,SSE,162,0.0,1.0,21,0.00,,,0.00,Wunderground v.1.15,2013-05-06 04:05:00,
2013-05-05 22:10:00,73.9,31.5,29.66,SSE,161,0.0,0.0,21,0.00,,,0.00,Wunderground v.1.15,2013-05-06 04:10:00,
2013-05-05 22:15:00,73.7,31.3,29.66,SE,129,0.0,0.0,21,0.00,,,0.00,Wunderground v.1.15,2013-05-06 04:15:00,
2013-05-05 22:20:00,73.5,29.9,29.66,SSE,147,0.0,0.0,20,0.00,,,0.00,Wunderground v.1.15,2013-05-06 04:20:00,
2013-05-05 22:25:00,73.4,29.9,29.66,South,176,0.0,0.0,20,0.00,,,0.00,Wunderground v.1.15,2013-05-06 04:25:00,
2013-05-05 22:35:00,73.1,29.6,29.66,SE,144,0.0,0.0,20,0.00,,,0.00,Wunderground v.1.15,2013-05-06 04:35:00,
2013-05-05 22:40:00,72.7,29.3,29.67,SSE,166,0.0,0.0,20,0.00,,,0.00,Wunderground v.1.15,2013-05-06 04:40:00,
2013-05-05 22:45:00,72.1,28.8,29.67,SSE,152,0.0,2.0,20,0.00,,,0.00,Wunderground v.1.15,2013-05-06 04:45:00,
2013-05-05 22:55:00,71.1,28.0,29.68,East,101,0.0,0.0,20,0.00,,,0.00,Wunderground v.1.15,2013-05-06 04:55:00,
2013-05-05 23:00:00,71.0,27.9,29.68,ESE,103,0.0,0.0,20,0.00,,,0.00,Wunderground v.1.15,2013-05-06 05:00:00,
2013-05-05 23:05:00,70.9,27.8,29.67,SE,136,0.0,0.0,20,0.00,,,0.00,Wunderground v.1.15,2013-05-06 05:05:00,
2013-05-05 23:15:00,70.8,27.7,29.67,SE,132,0.0,0.0,20,0.00,,,0.00,Wunderground v.1.15,2013-05-06 05:15:00,
2013-05-05 23:25:00,70.9,29.0,29.66,SSE,150,1.0,5.0,21,0.00,,,0.00,Wunderground v.1.15,2013-05-06 05:25:00,
2013-05-05 23:30:00,71.0,29.1,29.66,ESE,103,1.0,2.0,21,0.00,,,0.00,Wunderground v.1.15,2013-05-06 05:30:00,
2013-05-05 23:40:00,71.1,29.2,29.66,SSE,162,1.0,1.0,21,0.00,,,0.00,Wunderground v.1.15,2013-05-06 05:40:00,
2013-05-05 23:45:00,70.9,29.0,29.67,SSE,148,1.0,1.0,21,0.00,,,0.00,Wunderground v.1.15,2013-05-06 05:45:00,
2013-05-05 23:50:00,70.8,28.9,29.67,ESE,109,1.0,1.0,21,0.00,,,0.00,Wunderground v.1.15,2013-05-06 05:50:00,